Location: Brachbach
(49.1847°N, 9.7240°E)
Time: 14:19:47
(UTC+00:00)

Nimbus 7 Rocket - Pass Details

Date: 17 August 2024
Orbit: 921 x 965 km, 99.4° (Epoch: 14 September)

Event Time Altitude Azimuth Distance (km) Brightness Sun altitude
Rises 01:43:03 0° 8° (N) 3,590 8.5 -20.5°
Reaches altitude 10° 01:45:50 10° 357° (N) 2,638 7.5 -20.2°
Maximum altitude 01:50:36 27° 303° (WNW) 1,718 5.7 -19.8°
Enters shadow 01:53:03 20° 267° (W) 1,998 5.8 -19.5°
